,,,PA_Meas_PMT16A,,PR_Meas_QMR101_102,,RH_Meas_QMH101,,SR_Meas_QMS101,,TA_Meas_QMH101,,GenWind,,GenWind,
date,time,status,PA,status,PR,status,RH,status,SR,status,TA,status,DirAvg,status,SpdAvg,
2012-04-22, 00:00:04,VALID,999.944,VALID,0,VALID,93.4476,VALID,0,VALID,24.3824,VALID,93,VALID,0.538281,
2012-04-22, 00:01:04,VALID,999.919,VALID,0,VALID,93.4857,VALID,0,VALID,24.4037,VALID,93,VALID,0.462891,
2012-04-22, 00:02:04,VALID,999.898,VALID,0,VALID,93.5163,VALID,0,VALID,24.4037,VALID,93,VALID,0.417578,
2012-04-22, 00:03:04,VALID,999.883,VALID,0,VALID,93.5086,VALID,0,VALID,24.4037,VALID,93,VALID,0.226563,
2012-04-22, 00:04:04,VALID,999.859,VALID,0,VALID,93.5086,VALID,0,VALID,24.3824,VALID,93,VALID,0,
2012-04-22, 00:05:04,VALID,999.864,VALID,0,VALID,93.4476,VALID,0,VALID,24.4037,VALID,93,VALID,0,
2012-04-22, 00:06:04,VALID,999.862,VALID,0,VALID,93.4247,VALID,0,VALID,24.3824,VALID,93,VALID,0,
2012-04-22, 00:07:04,VALID,999.875,VALID,0,VALID,93.4552,VALID,0,VALID,24.4037,VALID,93,VALID,0,
2012-04-22, 00:08:04,VALID,999.867,VALID,0,VALID,93.4781,VALID,0,VALID,24.4019,VALID,93,VALID,0,
2012-04-22, 00:09:04,VALID,999.871,VALID,0,VALID,93.4934,VALID,0,VALID,24.4037,VALID,93,VALID,0,
2012-04-22, 00:10:04,VALID,999.882,VALID,0,VALID,93.5086,VALID,0,VALID,24.4233,VALID,93,VALID,0,
2012-04-22, 00:11:04,VALID,999.89,VALID,0,VALID,93.4781,VALID,0,VALID,24.4019,VALID,93,VALID,0,
2012-04-22, 00:12:04,VALID,999.903,VALID,0,VALID,93.4857,VALID,0,VALID,24.4019,VALID,93,VALID,0,
2012-04-22, 00:13:04,VALID,999.901,VALID,0,VALID,93.4857,VALID,0,VALID,24.4233,VALID,93,VALID,0.352734,
2012-04-22, 00:14:04,VALID,999.933,VALID,0,VALID,93.4857,VALID,0,VALID,24.4019,VALID,171,VALID,0.894922,
2012-04-22, 00:15:04,VALID,999.902,VALID,0,VALID,93.501,VALID,0,VALID,24.4214,VALID,168,VALID,1.20117,
2012-04-22, 00:16:04,VALID,999.888,VALID,0,VALID,93.4628,VALID,0,VALID,24.4818,VALID,167,VALID,1.00469,
2012-04-22, 00:17:04,VALID,999.9,VALID,0,VALID,93.3179,VALID,0,VALID,24.4818,VALID,162,VALID,1.0125,
2012-04-22, 00:18:04,VALID,999.852,VALID,0,VALID,93.2034,VALID,0,VALID,24.4995,VALID,161,VALID,1.01523,
2012-04-22, 00:19:04,VALID,999.856,VALID,0,VALID,93.1271,VALID,0,VALID,24.5404,VALID,162,VALID,1.19336,
2012-04-22, 00:20:04,VALID,999.858,VALID,0,VALID,93.0585,VALID,0,VALID,24.519,VALID,165,VALID,1.18008,
2012-04-22, 00:21:04,VALID,999.847,VALID,0,VALID,93.0356,VALID,0,VALID,24.5599,VALID,171,VALID,1.07383,
2012-04-22, 00:22:04,VALID,999.803,VALID,0,VALID,93.0203,VALID,0,VALID,24.5794,VALID,170,VALID,1.05938,
2012-04-22, 00:23:04,VALID,999.793,VALID,0,VALID,92.9364,VALID,0,VALID,24.5794,VALID,170,VALID,1.08867,
2012-04-22, 00:24:04,VALID,999.766,VALID,0,VALID,92.8601,VALID,0,VALID,24.558,VALID,170,VALID,1.11367,
2012-04-22, 00:25:04,VALID,999.74,VALID,0,VALID,92.7609,VALID,0,VALID,24.5794,VALID,170,VALID,1.08398,
2012-04-22, 00:26:04,VALID,999.729,VALID,0,VALID,92.6846,VALID,0,VALID,24.5599,VALID,170,VALID,0.908984,
2012-04-22, 00:27:04,VALID,999.703,VALID,0,VALID,92.6007,VALID,0,VALID,24.5599,VALID,159,VALID,0.885156,
2012-04-22, 00:28:04,VALID,999.667,VALID,0,VALID,92.532,VALID,0,VALID,24.5599,VALID,158,VALID,0.630859,
2012-04-22, 00:29:04,VALID,999.659,VALID,0,VALID,92.5397,VALID,0,VALID,24.4995,VALID,158,VALID,0.45,
2012-04-22, 00:30:04,VALID,999.657,VALID,0,VALID,92.5168,VALID,0,VALID,24.5013,VALID,145,VALID,0.523828,
2012-04-22, 00:31:04,VALID,999.66,VALID,0,VALID,92.5854,VALID,0,VALID,24.4604,VALID,145,VALID,0.510938,
2012-04-22, 00:32:04,VALID,999.64,VALID,0,VALID,92.6694,VALID,0,VALID,24.4623,VALID,145,VALID,0.534766,
2012-04-22, 00:33:04,VALID,999.657,VALID,0,VALID,92.8067,VALID,0,VALID,24.4214,VALID,125,VALID,0.559766,
2012-04-22, 00:34:04,VALID,999.662,VALID,0,VALID,92.9364,VALID,0,VALID,24.4428,VALID,125,VALID,0.514453,
2012-04-22, 00:35:04,VALID,999.658,VALID,0,VALID,93.0051,VALID,0,VALID,24.4019,VALID,125,VALID,0.496484,
2012-04-22, 00:36:04,VALID,999.684,VALID,0,VALID,93.1119,VALID,0,VALID,24.3824,VALID,125,VALID,0.404687,
2012-04-22, 00:37:04,VALID,999.692,VALID,0,VALID,93.15,VALID,0,VALID,24.3629,VALID,125,VALID,0.485938,
2012-04-22, 00:38:04,VALID,999.723,VALID,0,VALID,93.2645,VALID,0,VALID,24.3842,VALID,13,VALID,0.5875,
2012-04-22, 00:39:04,VALID,999.689,VALID,0,VALID,93.2721,VALID,0,VALID,24.3452,VALID,13,VALID,0.430078,
2012-04-22, 00:40:04,VALID,999.709,VALID,0,VALID,93.3408,VALID,0,VALID,24.3452,VALID,13,VALID,0.438281,
2012-04-22, 00:41:04,VALID,999.725,VALID,0,VALID,93.3942,VALID,0,VALID,24.3238,VALID,13,VALID,0.476563,
2012-04-22, 00:42:04,VALID,999.697,VALID,0,VALID,93.4476,VALID,0,VALID,24.3257,VALID,13,VALID,0.488672,
2012-04-22, 00:43:04,VALID,999.685,VALID,0,VALID,93.5239,VALID,0,VALID,24.3043,VALID,13,VALID,0.475391,
2012-04-22, 00:44:04,VALID,999.672,VALID,0,VALID,93.5391,VALID,0,VALID,24.3257,VALID,13,VALID,0.255078,
2012-04-22, 00:45:04,VALID,999.696,VALID,0,VALID,93.5697,VALID,0,VALID,24.3257,VALID,13,VALID,0.271875,
2012-04-22, 00:46:04,VALID,999.685,VALID,0,VALID,93.5544,VALID,0,VALID,24.3043,VALID,13,VALID,0.304297,
2012-04-22, 00:47:04,VALID,999.669,VALID,0,VALID,93.5391,VALID,0,VALID,24.3043,VALID,13,VALID,0.260938,
2012-04-22, 00:48:04,VALID,999.681,VALID,0,VALID,93.5086,VALID,0,VALID,24.3062,VALID,13,VALID,0.355859,
2012-04-22, 00:49:04,VALID,999.693,VALID,0,VALID,93.5163,VALID,0,VALID,24.2848,VALID,13,VALID,0.402734,
2012-04-22, 00:50:04,VALID,999.661,VALID,0,VALID,93.5544,VALID,0,VALID,24.2848,VALID,13,VALID,0.388281,
2012-04-22, 00:51:04,VALID,999.684,VALID,0,VALID,93.5849,VALID,0,VALID,24.3062,VALID,13,VALID,0.321875,
2012-04-22, 00:52:04,VALID,999.643,VALID,0,VALID,93.6154,VALID,0,VALID,24.3062,VALID,13,VALID,0.0855469,
2012-04-22, 00:53:04,VALID,999.635,VALID,0,VALID,93.5849,VALID,0,VALID,24.2653,VALID,13,VALID,0,
2012-04-22, 00:54:04,VALID,999.618,VALID,0,VALID,93.5468,VALID,0,VALID,24.2653,VALID,13,VALID,0,
2012-04-22, 00:55:04,VALID,999.592,VALID,0,VALID,93.5773,VALID,0,VALID,24.2653,VALID,13,VALID,0,
2012-04-22, 00:56:04,VALID,999.589,VALID,0,VALID,93.6612,VALID,0,VALID,24.2866,VALID,13,VALID,0.186719,
2012-04-22, 00:57:04,VALID,999.556,VALID,0,VALID,93.7223,VALID,0,VALID,24.2458,VALID,13,VALID,0.0984375,
2012-04-22, 00:58:04,VALID,999.59,VALID,0,VALID,93.7375,VALID,0,VALID,24.2458,VALID,13,VALID,0,
2012-04-22, 00:59:04,VALID,999.563,VALID,0,VALID,93.7375,VALID,0,VALID,24.2458,VALID,13,VALID,0,
2012-04-22, 01:00:04,VALID,999.556,VALID,0,VALID,93.6917,VALID,0,VALID,24.2458,VALID,13,VALID,0,
2012-04-22, 01:01:04,VALID,999.548,VALID,0,VALID,93.707,VALID,0,VALID,24.2067,VALID,13,VALID,0,
2012-04-22, 01:02:04,VALID,999.535,VALID,0,VALID,93.6917,VALID,0,VALID,24.2476,VALID,13,VALID,0,
2012-04-22, 01:03:04,VALID,999.527,VALID,0,VALID,93.7223,VALID,0,VALID,24.2476,VALID,13,VALID,0,
2012-04-22, 01:04:04,VALID,999.521,VALID,0,VALID,93.7375,VALID,0,VALID,24.2281,VALID,13,VALID,0,
2012-04-22, 01:05:04,VALID,999.566,VALID,0,VALID,93.7757,VALID,0,VALID,24.2067,VALID,13,VALID,0.414063,
2012-04-22, 01:06:04,VALID,999.513,VALID,0,VALID,93.852,VALID,0,VALID,24.2281,VALID,13,VALID,0.554688,
2012-04-22, 01:07:04,VALID,999.526,VALID,0,VALID,93.8825,VALID,0,VALID,24.2476,VALID,13,VALID,0.45625,
2012-04-22, 01:08:04,VALID,999.487,VALID,0,VALID,93.9283,VALID,0,VALID,24.2476,VALID,13,VALID,0.462891,
2012-04-22, 01:09:04,VALID,999.498,VALID,0,VALID,93.9283,VALID,0,VALID,24.2281,VALID,13,VALID,0.253125,
2012-04-22, 01:10:04,VALID,999.471,VALID,0,VALID,93.8977,VALID,0,VALID,24.2263,VALID,13,VALID,0.0492188,
2012-04-22, 01:11:04,VALID,999.485,VALID,0,VALID,93.8977,VALID,0,VALID,24.2281,VALID,13,VALID,0,
2012-04-22, 01:12:04,VALID,999.47,VALID,0,VALID,93.8825,VALID,0,VALID,24.2067,VALID,13,VALID,0,
2012-04-22, 01:13:04,VALID,999.432,VALID,0,VALID,93.8596,VALID,0,VALID,24.2281,VALID,13,VALID,0,
2012-04-22, 01:14:04,VALID,999.436,VALID,0,VALID,93.8367,VALID,0,VALID,24.2067,VALID,13,VALID,0,
2012-04-22, 01:15:04,VALID,999.425,VALID,0,VALID,93.8291,VALID,0,VALID,24.2067,VALID,13,VALID,0,
2012-04-22, 01:16:04,VALID,999.399,VALID,0,VALID,93.8443,VALID,0,VALID,24.2067,VALID,13,VALID,0,
2012-04-22, 01:17:04,VALID,999.359,VALID,0,VALID,93.8901,VALID,0,VALID,24.2086,VALID,13,VALID,0.519531,
2012-04-22, 01:18:04,VALID,999.368,VALID,0,VALID,93.9435,VALID,0,VALID,24.2281,VALID,49,VALID,0.626953,
2012-04-22, 01:19:04,VALID,999.345,VALID,0,VALID,93.9283,VALID,0,VALID,24.2067,VALID,69,VALID,0.773438,
2012-04-22, 01:20:04,VALID,999.33,VALID,0,VALID,93.9206,VALID,0,VALID,24.2086,VALID,82,VALID,0.765234,
2012-04-22, 01:21:04,VALID,999.308,VALID,0,VALID,93.8901,VALID,0,VALID,24.1891,VALID,82,VALID,0.701953,
2012-04-22, 01:22:04,VALID,999.319,VALID,0,VALID,93.8825,VALID,0,VALID,24.1677,VALID,82,VALID,0.671875,
2012-04-22, 01:23:04,VALID,999.304,VALID,0,VALID,93.8672,VALID,0,VALID,24.1696,VALID,82,VALID,0.3375,
2012-04-22, 01:24:04,VALID,999.276,VALID,0,VALID,93.8367,VALID,0,VALID,24.1696,VALID,82,VALID,0.460547,
2012-04-22, 01:25:04,VALID,999.297,VALID,0,VALID,93.7909,VALID,0,VALID,24.15,VALID,82,VALID,0.383203,
2012-04-22, 01:26:04,VALID,999.282,VALID,0,VALID,93.8062,VALID,0,VALID,24.1092,VALID,82,VALID,0.325781,
2012-04-22, 01:27:04,VALID,999.263,VALID,0,VALID,93.7833,VALID,0,VALID,24.1092,VALID,82,VALID,0.335547,
2012-04-22, 01:28:04,VALID,999.299,VALID,0,VALID,93.7985,VALID,0,VALID,24.0897,VALID,82,VALID,0.539844,
2012-04-22, 01:29:04,VALID,999.277,VALID,0,VALID,93.8291,VALID,0,VALID,24.111,VALID,82,VALID,0.500781,
2012-04-22, 01:30:04,VALID,999.257,VALID,0,VALID,93.8901,VALID,0,VALID,24.0915,VALID,82,VALID,0.617578,
2012-04-22, 01:31:04,VALID,999.23,VALID,0,VALID,93.9435,VALID,0,VALID,24.0897,VALID,82,VALID,0.764453,
2012-04-22, 01:32:04,VALID,999.202,VALID,0,VALID,94.0198,VALID,0,VALID,24.0897,VALID,82,VALID,0.908984,
2012-04-22, 01:33:04,VALID,999.181,VALID,0,VALID,94.0808,VALID,0,VALID,24.1092,VALID,82,VALID,1.04805,
2012-04-22, 01:34:04,VALID,999.145,VALID,0,VALID,94.1114,VALID,0,VALID,24.1092,VALID,79,VALID,1.24805,
2012-04-22, 01:35:04,VALID,999.135,VALID,0,VALID,94.1343,VALID,0,VALID,24.1305,VALID,79,VALID,1.26289,
2012-04-22, 01:36:04,VALID,999.125,VALID,0,VALID,94.1343,VALID,0,VALID,24.1305,VALID,72,VALID,1.31602,
2012-04-22, 01:37:04,VALID,999.114,VALID,0,VALID,94.1037,VALID,0,VALID,24.0897,VALID,67,VALID,1.01875,
2012-04-22, 01:38:04,VALID,999.108,VALID,0,VALID,94.0656,VALID,0,VALID,24.0915,VALID,62,VALID,1.02266,
2012-04-22, 01:39:04,VALID,999.119,VALID,0,VALID,94.0503,VALID,0,VALID,24.0506,VALID,58,VALID,1.02461,
2012-04-22, 01:40:04,VALID,999.11,VALID,0,VALID,93.9969,VALID,0,VALID,24.0525,VALID,61,VALID,0.8875,
2012-04-22, 01:41:04,VALID,999.076,VALID,0,VALID,93.9588,VALID,0,VALID,24.0116,VALID,58,VALID,0.902734,
2012-04-22, 01:42:04,VALID,999.06,VALID,0,VALID,93.9206,VALID,0,VALID,24.0329,VALID,64,VALID,1.01758,
2012-04-22, 01:43:04,VALID,999.061,VALID,0,VALID,93.8596,VALID,0,VALID,24.0116,VALID,69,VALID,1.15391,
2012-04-22, 01:44:04,VALID,999.039,VALID,0,VALID,93.8062,VALID,0,VALID,23.9921,VALID,66,VALID,1.23203,
2012-04-22, 01:45:04,VALID,999.019,VALID,0,VALID,93.7604,VALID,0,VALID,23.9921,VALID,70,VALID,1.08789,
2012-04-22, 01:46:04,VALID,999.029,VALID,0,VALID,93.7375,VALID,0,VALID,24.0329,VALID,72,VALID,0.993359,
2012-04-22, 01:47:04,VALID,999,VALID,0,VALID,93.7299,VALID,0,VALID,23.9921,VALID,72,VALID,0.807031,
2012-04-22, 01:48:04,VALID,999.007,VALID,0,VALID,93.7375,VALID,0,VALID,24.0329,VALID,72,VALID,0.819141,
2012-04-22, 01:49:04,VALID,999.021,VALID,0,VALID,93.7299,VALID,0,VALID,23.9726,VALID,79,VALID,0.523438,
2012-04-22, 01:50:04,VALID,999.01,VALID,0,VALID,93.7146,VALID,0,VALID,23.9921,VALID,80,VALID,0.527344,
2012-04-22, 01:51:04,VALID,999.007,VALID,0,VALID,93.6841,VALID,0,VALID,23.9726,VALID,80,VALID,0.244531,
2012-04-22, 01:52:04,VALID,998.987,VALID,0,VALID,93.707,VALID,0,VALID,23.9744,VALID,80,VALID,0.247656,
2012-04-22, 01:53:04,VALID,999.016,VALID,0,VALID,93.6765,VALID,0,VALID,23.9336,VALID,80,VALID,0.121484,
2012-04-22, 01:54:04,VALID,999.035,VALID,0,VALID,93.6841,VALID,0,VALID,23.9354,VALID,80,VALID,0,
2012-04-22, 01:55:05,VALID,999.008,VALID,0,VALID,93.646,VALID,0,VALID,23.914,VALID,80,VALID,0.021875,
2012-04-22, 01:56:05,VALID,999.02,VALID,0,VALID,93.6841,VALID,0,VALID,23.8945,VALID,79,VALID,0.173047,
2012-04-22, 01:57:05,VALID,999.003,VALID,0,VALID,93.7757,VALID,0,VALID,23.914,VALID,79,VALID,0.123047,
2012-04-22, 01:58:05,VALID,998.969,VALID,0,VALID,93.8291,VALID,0,VALID,23.9354,VALID,80,VALID,0.109766,
2012-04-22, 01:59:05,VALID,998.967,VALID,0,VALID,93.8977,VALID,0,VALID,23.9354,VALID,79,VALID,0.1125,
2012-04-22, 02:00:05,VALID,998.931,VALID,0,VALID,93.9511,VALID,0,VALID,23.9336,VALID,79,VALID,0.0710938,
2012-04-22, 02:01:05,VALID,998.927,VALID,0,VALID,93.974,VALID,0,VALID,23.9336,VALID,79,VALID,0,
2012-04-22, 02:02:05,VALID,998.883,VALID,0,VALID,94.0045,VALID,0.104696,VALID,23.9354,VALID,80,VALID,0,
2012-04-22, 02:03:05,VALID,998.938,VALID,0,VALID,93.9817,VALID,0,VALID,23.914,VALID,80,VALID,0.198437,
2012-04-22, 02:04:05,VALID,998.915,VALID,0,VALID,94.058,VALID,0,VALID,23.9336,VALID,80,VALID,0,
2012-04-22, 02:05:05,VALID,998.89,VALID,0,VALID,94.0427,VALID,0,VALID,23.9336,VALID,80,VALID,0,
2012-04-22, 02:06:05,VALID,998.9,VALID,0,VALID,94.0351,VALID,0,VALID,23.9549,VALID,80,VALID,0,
2012-04-22, 02:07:05,VALID,998.887,VALID,0,VALID,94.0351,VALID,0,VALID,23.9336,VALID,80,VALID,0.360938,
2012-04-22, 02:08:05,VALID,998.887,VALID,0,VALID,94.0122,VALID,0,VALID,23.9549,VALID,80,VALID,0.228906,
2012-04-22, 02:09:05,VALID,998.881,VALID,0,VALID,94.0503,VALID,0,VALID,23.9744,VALID,80,VALID,0.333203,
2012-04-22, 02:10:05,VALID,998.864,VALID,0,VALID,94.0503,VALID,0,VALID,23.9744,VALID,80,VALID,0.309375,
2012-04-22, 02:11:05,VALID,998.878,VALID,0,VALID,94.0656,VALID,0,VALID,24.0134,VALID,79,VALID,0.324219,
2012-04-22, 02:12:05,VALID,998.892,VALID,0,VALID,94.0656,VALID,0,VALID,23.9921,VALID,79,VALID,0.175391,
2012-04-22, 02:13:05,VALID,998.89,VALID,0,VALID,94.0656,VALID,0,VALID,24.0134,VALID,79,VALID,0.23125,
2012-04-22, 02:14:05,VALID,998.904,VALID,0,VALID,94.0274,VALID,0,VALID,23.9921,VALID,79,VALID,0.356641,
2012-04-22, 02:15:05,VALID,998.912,VALID,0,VALID,94.058,VALID,0,VALID,24.0134,VALID,79,VALID,0.273047,
2012-04-22, 02:16:05,VALID,998.939,VALID,0,VALID,94.0045,VALID,0,VALID,23.9921,VALID,79,VALID,0.224219,
2012-04-22, 02:17:05,VALID,998.939,VALID,0,VALID,93.974,VALID,0,VALID,24.0134,VALID,79,VALID,0.114063,
2012-04-22, 02:18:05,VALID,998.965,VALID,0,VALID,93.9588,VALID,0,VALID,23.9921,VALID,79,VALID,0,
2012-04-22, 02:19:05,VALID,998.974,VALID,0,VALID,93.9664,VALID,0,VALID,24.0134,VALID,79,VALID,0,
2012-04-22, 02:20:05,VALID,999.035,VALID,0,VALID,93.9435,VALID,0,VALID,23.9726,VALID,79,VALID,0,
2012-04-22, 02:21:05,VALID,999.058,VALID,0,VALID,93.9511,VALID,0,VALID,23.9744,VALID,27,VALID,0.850781,
2012-04-22, 02:22:05,VALID,999.077,VALID,0,VALID,93.9511,VALID,0,VALID,23.9336,VALID,26,VALID,0.888672,
2012-04-22, 02:23:05,VALID,999.099,VALID,0,VALID,93.9283,VALID,0,VALID,23.8963,VALID,23,VALID,0.735937,
2012-04-22, 02:24:05,VALID,999.114,VALID,0,VALID,93.9054,VALID,0,VALID,23.8768,VALID,23,VALID,0.441016,
2012-04-22, 02:25:05,VALID,999.139,VALID,0,VALID,93.9435,VALID,0,VALID,23.8378,VALID,23,VALID,0.728516,
2012-04-22, 02:26:05,VALID,999.161,VALID,0,VALID,94.0656,VALID,0,VALID,23.8165,VALID,23,VALID,0.898828,
2012-04-22, 02:27:05,VALID,999.169,VALID,0,VALID,94.18,VALID,0,VALID,23.8165,VALID,23,VALID,1.10742,
2012-04-22, 02:28:05,VALID,999.184,VALID,0,VALID,94.2487,VALID,0,VALID,23.797,VALID,30,VALID,1.31094,
2012-04-22, 02:29:05,VALID,999.205,VALID,0,VALID,94.3021,VALID,0,VALID,23.8183,VALID,41,VALID,1.19062,
2012-04-22, 02:30:05,VALID,999.193,VALID,0,VALID,94.4013,VALID,0,VALID,23.8183,VALID,43,VALID,1.09219,
2012-04-22, 02:31:05,VALID,999.187,VALID,0,VALID,94.4394,VALID,0,VALID,23.836,VALID,59,VALID,1.32148,
2012-04-22, 02:32:05,VALID,999.19,VALID,0,VALID,94.4776,VALID,0,VALID,23.8555,VALID,58,VALID,0.931641,
2012-04-22, 02:33:05,VALID,999.197,VALID,0,VALID,94.4852,VALID,0,VALID,23.875,VALID,60,VALID,0.729297,
2012-04-22, 02:34:05,VALID,999.186,VALID,0,VALID,94.47,VALID,0,VALID,23.8945,VALID,61,VALID,0.451562,
2012-04-22, 02:35:05,VALID,999.15,VALID,0,VALID,94.4471,VALID,0,VALID,23.9354,VALID,65,VALID,0.742969,
2012-04-22, 02:36:05,VALID,999.127,VALID,0,VALID,94.4242,VALID,0,VALID,23.9336,VALID,65,VALID,0.297656,
2012-04-22, 02:37:05,VALID,999.105,VALID,0,VALID,94.3937,VALID,0,VALID,23.9549,VALID,65,VALID,0.258594,
2012-04-22, 02:38:05,VALID,999.059,VALID,0,VALID,94.3708,VALID,0,VALID,23.9726,VALID,65,VALID,0.417578,
2012-04-22, 02:39:05,VALID,999.021,VALID,0,VALID,94.3937,VALID,0,VALID,23.9939,VALID,65,VALID,0.399219,
2012-04-22, 02:40:05,VALID,999.012,VALID,0,VALID,94.3631,VALID,0,VALID,23.9726,VALID,102,VALID,0.655078,
2012-04-22, 02:41:05,VALID,998.972,VALID,0,VALID,94.3174,VALID,0,VALID,23.9921,VALID,105,VALID,0.258984,
2012-04-22, 02:42:05,VALID,998.95,VALID,0,VALID,94.2563,VALID,0,VALID,23.9726,VALID,129,VALID,0.443359,
2012-04-22, 02:43:05,VALID,998.914,VALID,0,VALID,94.1648,VALID,0,VALID,23.9726,VALID,129,VALID,0.587891,
2012-04-22, 02:44:05,VALID,998.913,VALID,0,VALID,94.0961,VALID,0,VALID,23.9939,VALID,129,VALID,0.428906,
2012-04-22, 02:45:05,VALID,998.887,VALID,0,VALID,94.0198,VALID,0,VALID,23.9531,VALID,130,VALID,0.366797,
2012-04-22, 02:46:05,VALID,998.87,VALID,0,VALID,93.913,VALID,0,VALID,23.914,VALID,146,VALID,0.370703,
2012-04-22, 02:47:05,VALID,998.86,VALID,0,VALID,93.7757,VALID,0,VALID,23.914,VALID,146,VALID,0,
2012-04-22, 02:48:05,VALID,998.837,VALID,0,VALID,93.7146,VALID,0,VALID,23.914,VALID,146,VALID,0,
2012-04-22, 02:49:05,VALID,998.802,VALID,0,VALID,93.6994,VALID,0,VALID,23.8945,VALID,146,VALID,0,
2012-04-22, 02:50:05,VALID,998.818,VALID,0,VALID,93.6841,VALID,0,VALID,23.875,VALID,146,VALID,0,
2012-04-22, 02:51:05,VALID,998.806,VALID,0,VALID,93.6917,VALID,0,VALID,23.8555,VALID,146,VALID,0.0984375,
2012-04-22, 02:52:05,VALID,998.834,VALID,0,VALID,93.6536,VALID,0,VALID,23.8573,VALID,146,VALID,0.103125,
2012-04-22, 02:53:05,VALID,998.823,VALID,0,VALID,93.5926,VALID,0,VALID,23.8573,VALID,146,VALID,0.205469,
2012-04-22, 02:54:05,VALID,998.839,VALID,0,VALID,93.5773,VALID,0,VALID,23.8573,VALID,146,VALID,0.115625,
2012-04-22, 02:55:05,VALID,998.83,VALID,0,VALID,93.5849,VALID,0,VALID,23.8378,VALID,146,VALID,0,
2012-04-22, 02:56:05,VALID,998.861,VALID,0,VALID,93.646,VALID,0,VALID,23.8573,VALID,146,VALID,0.425781,
2012-04-22, 02:57:05,VALID,998.882,VALID,0,VALID,93.6917,VALID,0,VALID,23.8573,VALID,146,VALID,0.461719,
2012-04-22, 02:58:05,VALID,998.905,VALID,0,VALID,93.7146,VALID,0,VALID,23.8378,VALID,146,VALID,0.615625,
2012-04-22, 02:59:05,VALID,998.924,VALID,0,VALID,93.7299,VALID,0,VALID,23.8378,VALID,109,VALID,0.86875,
2012-04-22, 03:00:05,VALID,998.933,VALID,0,VALID,93.7223,VALID,0,VALID,23.8378,VALID,108,VALID,1.04297,
2012-04-22, 03:01:05,VALID,998.959,VALID,0,VALID,93.7375,VALID,0,VALID,23.8573,VALID,109,VALID,0.789844,
2012-04-22, 03:02:05,VALID,998.955,VALID,0,VALID,93.7146,VALID,0,VALID,23.8165,VALID,109,VALID,0.736719,
2012-04-22, 03:03:05,VALID,998.973,VALID,0,VALID,93.7223,VALID,0,VALID,23.8378,VALID,109,VALID,0.293359,
2012-04-22, 03:04:05,VALID,998.967,VALID,0,VALID,93.6917,VALID,0,VALID,23.8165,VALID,109,VALID,0.685547,
2012-04-22, 03:05:05,VALID,998.974,VALID,0,VALID,93.768,VALID,0,VALID,23.8378,VALID,109,VALID,0.497656,
2012-04-22, 03:06:05,VALID,998.965,VALID,0,VALID,93.768,VALID,0,VALID,23.8378,VALID,109,VALID,0.598828,
2012-04-22, 03:07:05,VALID,999.004,VALID,0,VALID,93.7909,VALID,0,VALID,23.8573,VALID,109,VALID,0.826172,
2012-04-22, 03:08:05,VALID,999.005,VALID,0,VALID,93.8138,VALID,0,VALID,23.8165,VALID,109,VALID,0.998828,
2012-04-22, 03:09:05,VALID,999.003,VALID,0,VALID,93.8214,VALID,0,VALID,23.8573,VALID,109,VALID,0.749609,
2012-04-22, 03:10:05,VALID,999.033,VALID,0,VALID,93.8291,VALID,0,VALID,23.8573,VALID,109,VALID,0.642969,
2012-04-22, 03:11:05,VALID,999.013,VALID,0,VALID,93.852,VALID,0,VALID,23.8573,VALID,94,VALID,0.625,
2012-04-22, 03:12:05,VALID,999.033,VALID,0,VALID,93.8748,VALID,0,VALID,23.8768,VALID,91,VALID,0.589453,
2012-04-22, 03:13:05,VALID,998.997,VALID,0,VALID,93.8672,VALID,0,VALID,23.8768,VALID,76,VALID,0.747656,
2012-04-22, 03:14:05,VALID,998.986,VALID,0,VALID,93.8596,VALID,0,VALID,23.8963,VALID,64,VALID,0.767187,
2012-04-22, 03:15:05,VALID,998.933,VALID,0,VALID,93.8291,VALID,0,VALID,23.875,VALID,59,VALID,0.989844,
2012-04-22, 03:16:05,VALID,998.909,VALID,0,VALID,93.8138,VALID,0,VALID,23.8555,VALID,50,VALID,0.785156,
2012-04-22, 03:17:05,VALID,998.89,VALID,0,VALID,93.7833,VALID,0,VALID,23.8963,VALID,50,VALID,0.947656,
2012-04-22, 03:18:05,VALID,998.864,VALID,0,VALID,93.7909,VALID,0,VALID,23.8963,VALID,51,VALID,0.884766,
2012-04-22, 03:19:05,VALID,998.855,VALID,0,VALID,93.7833,VALID,0,VALID,23.8963,VALID,58,VALID,0.688281,
2012-04-22, 03:20:05,VALID,998.851,VALID,0,VALID,93.7833,VALID,0,VALID,23.8768,VALID,57,VALID,0.70625,
2012-04-22, 03:21:05,VALID,998.859,VALID,0,VALID,93.8138,VALID,0,VALID,23.8768,VALID,54,VALID,0.627734,
2012-04-22, 03:22:05,VALID,998.859,VALID,0,VALID,93.8291,VALID,0,VALID,23.8768,VALID,43,VALID,0.677344,
2012-04-22, 03:23:05,VALID,998.832,VALID,0,VALID,93.852,VALID,0,VALID,23.8573,VALID,43,VALID,0.627734,
2012-04-22, 03:24:05,VALID,998.856,VALID,0,VALID,93.9054,VALID,0,VALID,23.8378,VALID,42,VALID,0.881641,
2012-04-22, 03:25:05,VALID,998.861,VALID,0,VALID,93.9588,VALID,0,VALID,23.8183,VALID,34,VALID,0.760938,
2012-04-22, 03:26:05,VALID,998.862,VALID,0,VALID,94.0351,VALID,0,VALID,23.797,VALID,34,VALID,0.876172,
2012-04-22, 03:27:05,VALID,998.914,VALID,0,VALID,94.1037,VALID,0,VALID,23.7988,VALID,34,VALID,0.880078,
2012-04-22, 03:28:05,VALID,998.908,VALID,0,VALID,94.18,VALID,0,VALID,23.7775,VALID,34,VALID,1.01367,
2012-04-22, 03:29:05,VALID,998.921,VALID,0,VALID,94.2411,VALID,0,VALID,23.7579,VALID,35,VALID,1.12031,
2012-04-22, 03:30:05,VALID,998.984,VALID,0,VALID,94.3021,VALID,0,VALID,23.7775,VALID,36,VALID,1.10391,
2012-04-22, 03:31:05,VALID,998.985,VALID,0,VALID,94.3326,VALID,0,VALID,23.7579,VALID,36,VALID,1.30586,
2012-04-22, 03:32:05,VALID,998.987,VALID,0,VALID,94.3555,VALID,0,VALID,23.7775,VALID,32,VALID,1.5957,
2012-04-22, 03:33:05,VALID,999.044,VALID,0,VALID,94.3937,VALID,0,VALID,23.7988,VALID,22,VALID,1.85469,
2012-04-22, 03:34:05,VALID,999.058,VALID,0,VALID,94.4623,VALID,0,VALID,23.8183,VALID,31,VALID,1.90117,
2012-04-22, 03:35:05,VALID,999.06,VALID,0,VALID,94.5539,VALID,0,VALID,23.8573,VALID,27,VALID,1.46445,
2012-04-22, 03:36:05,VALID,999.022,VALID,0,VALID,94.5768,VALID,0,VALID,23.8768,VALID,354,VALID,2.68164,
2012-04-22, 03:37:05,VALID,999.054,VALID,0,VALID,94.5539,VALID,0,VALID,23.9159,VALID,22,VALID,1.8918,
2012-04-22, 03:38:05,VALID,999.002,VALID,0,VALID,94.4394,VALID,0,VALID,23.9354,VALID,16,VALID,2.47852,
2012-04-22, 03:39:05,VALID,999.023,VALID,0,VALID,94.4165,VALID,0,VALID,23.9354,VALID,14,VALID,2.46445,
2012-04-22, 03:40:05,VALID,999.012,VALID,0,VALID,94.3403,VALID,0,VALID,23.9336,VALID,15,VALID,2.29453,
2012-04-22, 03:41:05,VALID,998.984,VALID,0,VALID,94.3479,VALID,0,VALID,23.9744,VALID,9,VALID,2.07695,
2012-04-22, 03:42:05,VALID,998.996,VALID,0,VALID,94.3479,VALID,0,VALID,23.9939,VALID,356,VALID,2.0543,
2012-04-22, 03:43:05,VALID,998.958,VALID,0,VALID,94.3021,VALID,0,VALID,24.0134,VALID,14,VALID,2.60625,
2012-04-22, 03:44:05,VALID,998.957,VALID,0,VALID,94.2716,VALID,0,VALID,24.0311,VALID,10,VALID,2.92031,
2012-04-22, 03:45:05,VALID,998.932,VALID,0,VALID,94.2182,VALID,0,VALID,24.0506,VALID,10,VALID,3.12266,
2012-04-22, 03:46:05,VALID,998.916,VALID,0,VALID,94.1037,VALID,0,VALID,24.111,VALID,6,VALID,2.03281,
2012-04-22, 03:47:05,VALID,998.904,VALID,0,VALID,93.9435,VALID,0,VALID,24.1287,VALID,345,VALID,2.03555,
2012-04-22, 03:48:05,VALID,998.92,VALID,0,VALID,93.7528,VALID,0,VALID,24.1482,VALID,338,VALID,2.01211,
2012-04-22, 03:49:05,VALID,998.937,VALID,0,VALID,93.5697,VALID,0,VALID,24.1872,VALID,348,VALID,2.20703,